[Iaude] MPEC D36: 2024 CT8 [a=1.30,e=0.28,i=8.4,H=26.5]
    mpec at cfa.harvard.edu 
    mpec at cfa.harvard.edu
       
    Sat Feb 17 08:57:52 EST 2024
    
    
  
M.P.E.C. 2024-D36                             Issued 2024 February 17, 13:56 UT
     The Minor Planet Electronic Circulars contain information on unusual
         minor planets, routine data on comets and natural satellites,
         and occasional editorial announcements.  They are published
    on behalf of Division F of the International Astronomical Union by the
          Minor Planet Center, Smithsonian Astrophysical Observatory,
                          Cambridge, MA 02138, U.S.A.
			  
             Prepared using the Tamkin Foundation Computer Network
                              MPC at CFA.HARVARD.EDU
            URL https://www.minorplanetcenter.net/    ISSN 1523-6714
                                    2024 CT8                                    
Observations:
     K24C08T*1C2024 02 15.42000410 45 22.468+56 31 18.84         21.06GVED036G96
     K24C08T 1C2024 02 15.42518610 45 24.685+56 30 56.52         21.45GVED036G96
     K24C08T 1C2024 02 15.43037810 45 26.935+56 30 33.73         21.06GVED036G96
     K24C08T 1C2024 02 15.43556510 45 29.149+56 30 11.41         21.06GVED036G96
     K24C08T KC2024 02 15.52527810 46 09.426+56 23 23.71         21.36GVED036I52
     K24C08T KC2024 02 15.52916310 46 11.320+56 23 05.71         21.10GVED036I52
     K24C08T KC2024 02 16.21689510 52 14.966+55 40 16.93         21.57GVED036V06
     K24C08T KC2024 02 16.22313310 52 17.306+55 39 57.71         21.28GVED036V06
     K24C08T KC2024 02 16.22624910 52 18.433+55 39 48.13         21.56GVED036V06
     K24C08T KC2024 02 17.50812911 00 10.010+54 27 53.50         21.82GVED036V06
     K24C08T KC2024 02 17.53545111 00 17.860+54 26 12.20         22.12GVED036V06
     K24C08T KC2024 02 17.53840011 00 18.750+54 26 01.30         21.68GVED036V06
Observer details:
G96 Mt. Lemmon Survey.  Observers V. F. Carvajal, J. K. Hogan.  Measurers T.
    Beuden, V. F. Carvajal, D. Fay, J. B. Fazekas, D. C. Fuls, A. R. Gibbs, A.
    D. Grauer, H. Groeller, J. K. Hogan, R. A. Kowalski, S. M. Larson, G. J.
    Leonard, D. Rankin, R. L. Seaman, F. C. Shelly, K. W. Wierzchos.  1.5-m
    reflector + 10K CCD.
I52 Steward Observatory, Mt. Lemmon Station.  Observer J. B. Fazekas.
    Measurers E. C. Beshore, D. Fay, J. B. Fazekas, D. C. Fuls, A. R. Gibbs,
    A. D. Grauer, H. Groeller, J. K. Hogan, R. A. Kowalski, S. M. Larson, G.
    J. Leonard, D. Rankin, R. L. Seaman, F. C. Shelly, K. W. Wierzchos.  1.0-m
    prime focus + CCD.
V06 Catalina Sky Survey-Kuiper.  Observer J. B. Fazekas.  Measurers T. Beuden,
    V. F. Carvajal, D. Fay, J. B. Fazekas, D. C. Fuls, A. R. Gibbs, A. D.
    Grauer, H. Groeller, J. K. Hogan, R. A. Kowalski, S. M. Larson, G. J.
    Leonard, D. Rankin, R. L. Seaman, F. C. Shelly, K. W. Wierzchos.  1.55-m
    reflector + 1K CCD.
Orbital elements:
2024 CT8                                                 Earth MOID = 0.0009 AU
Epoch 2024 Mar. 31.0 TT = JDT 2460400.5                 MPC                     
M  59.97270              (2000.0)            P               Q                  
n   0.66674297     Peri.  319.53665     -0.05546959     -0.99273880             
a   1.2976685      Node   133.34988     +0.94978191     -0.08543476             
e   0.2816548      Incl.    8.44055     +0.30795691     +0.08467931             
P   1.48           H   26.54          G   0.15           U   7                  
Residuals in seconds of arc
240215 G96  0.1-  0.1-    240215 I52  0.1-  0.1-    240216 V06  0.0   0.1-
240215 G96  0.1-  0.0     240215 I52  0.4+  0.1+    240217 V06  0.2-  0.0
240215 G96  0.0   0.2-    240216 V06  0.0   0.3+    240217 V06  0.1-  0.1-
240215 G96  0.2-  0.2+    240216 V06  0.2+  0.0     240217 V06  0.1+  0.0
Ephemeris:
2024 CT8                 a,e,i = 1.30, 0.28, 8                   q = 0.9322
Date    TT    R. A. (2000) Decl.     Delta      r    Elong.  Phase     V
2024 01 18    00 23 18.2 -36 41 25   0.08082 0.9453    59.5   116.3    25.5
...
2024 02 02    01 38 58.9 -06 43 06   0.01999 0.9784    69.0   110.0    22.2
...
2024 02 10    08 41 41.3 +64 14 55   0.02452 1.0025   129.7    49.2    20.3
...
2024 02 16    10 50 21.7 +55 53 08   0.04860 1.0230   135.5    42.6    21.7
2024 02 17    10 57 21.5 +54 54 50   0.05285 1.0266   135.9    42.0    21.9
2024 02 18    11 03 00.0 +54 02 48   0.05714 1.0302   136.3    41.5    22.0
...
2024 02 24    11 21 33.1 +50 14 40   0.08342 1.0529   138.0    39.0    22.8
...
2024 03 03    11 29 51.5 +46 52 46   0.1199  1.0851   139.3    36.6    23.6
...
2024 03 18    11 33 17.7 +41 37 52   0.1943  1.1493   139.1    34.5    24.7
A. U. Tomatic                (C) Copyright 2024 MPC           M.P.E.C. 2024-D36
    
    
More information about the Iaude
mailing list